Regional Weather Roundup
Issued by NWS

Home | Current Version | Previous Version | Graphics & Text | Print | Product List | Glossary Off
Versions: 1 2 3 4 5 6 7 8 9 10 11 12 13 14 15 16 17 18 19 20 21 22 23 24 25 26 27 28 29 30 31 32 33 34 35 36 37 38 39 40 41 42 43 44 45 46 47 48 49 50

000
ASUS43 KMKX 250159
RWRWI

WISCONSIN REGIONAL WEATHER ROUNDUP
NATIONAL WEATHER SERVICE MILWAUKEE/SULLIVAN WI
800 PM CST SAT FEB 24 2018

NOTE: "FAIR" INDICATES FEW OR NO CLOUDS BELOW 12,000 FEET WITH NO
SIGNIFICANT WEATHER AND/OR OBSTRUCTIONS TO VISIBILITY.

WIZ001-002-006>008-014>016-023>028-250300-
NORTHWEST WISCONSIN

CITY           SKY/WX    TMP DP  RH WIND       PRES   REMARKS
SUPERIOR ARPT  HVY SNOW  25  24  96 E20G26    29.65F VSB 1/4 WCI  10
ASHLAND        LGT SNOW  25  23  92 N15       29.65F FOG     WCI  13
HAYWARD        SNOW      31  28  89 E7        29.59F VSB 1/2 WCI  24
SIREN          LGT SNOW  29  28  96 E5        29.60F VSB 1   WCI  24
CUMBERLAND     SNOW      30  28  93 E3        29.58F VSB 1/2
RICE LAKE      SNOW      30  29  96 E8        29.59F VSB 1/2 WCI  23
CHETEK         LGT SNOW  30  29  96 E7        29.58F VSB 1   WCI  23
LADYSMITH      LGT SNOW  31  28  88 E13       29.60F WCI  21
EAU CLAIRE     NOT AVBL
MENOMONIE      LGT SNOW  32  31  97 E7        29.55F VSB 1   WCI  25
NEW RICHMOND   LGT SNOW  30  27  91 E5        29.56F VSB 1   WCI  25
OSCEOLA        LGT SNOW  30  30 100 NE3       29.59F VSB 1
$$

WIZ003>005-009-010-017-018-250300-
NORTH CENTRAL WISCONSIN

CITY           SKY/WX    TMP DP  RH WIND       PRES   REMARKS
MANITOWISH WTR CLOUDY    30  22  71 E13       29.64F WCI  20
ARBOR VITAE    CLOUDY    32  24  71 E16G26    29.64F WCI  21
WOODRUFF       CLOUDY    32  24  71 E16G26    29.64F WCI  21
RHINELANDER    LGT SNOW  28  24  85 E21G29    29.63F FOG     WCI  15
EAGLE RIVER    CLOUDY    28  20  70 E16       29.66F WCI  17
LAND O LAKES   CLOUDY    29  20  70 E16G22    29.70F WCI  17
PHILLIPS       LGT SNOW  28  26  91 E12G25    29.57F WCI  18
TOMAHAWK       LGT SNOW  28  25  86 E10G16    29.63F WCI  19
MEDFORD        MIX PCPN  28  26  89 E14G23    29.57F WCI  17
MERRILL        LGT SNOW  29  26  88 E18G25    29.60F WCI  17
$$

WIZ029-030-035-036-043>047-250300-
CENTRAL WISCONSIN

CITY           SKY/WX    TMP DP  RH WIND       PRES   REMARKS
WAUSAU         MIX PCPN  29  25  85 E18G31    29.59F FOG     WCI  16
MOSINEE        NOT AVBL
MARSHFIELD     LGT SNOW  31  29  92 SE22G31   29.56F FOG     WCI  18
STEVENS POINT  MIX PCPN  29  28  98 E20G29    29.65F WCI  16
WAUPACA        LGT RAIN  33  30  87 E13       29.70F WCI  24
WAUTOMA        FRZ RAIN  32  30  92 E15G23    29.63F FOG     WCI  22
WISC RAPIDS    FRZ RAIN  32  28  85 SE18G28   29.61F FOG     WCI  20
CAMP DOUGLAS   LGT RAIN  33  33  99 E17       29.55F FOG     WCI  22
$$

WIZ011>013-019>022-031-037>040-048>050-250300-
NORTHEAST WISCONSIN

CITY           SKY/WX    TMP DP  RH WIND       PRES   REMARKS
ANTIGO         MIX PCPN  27  24  88 E26G32    29.65F WCI  12
SHAWANO        LGT SNOW  32  28  85 E12G21    29.71F WCI  23
OCONTO         CLOUDY    32  28  84 E10G17    29.77F WCI  24
STURGEON BAY   CLOUDY    34  29  82 E10       29.77F WCI  26
GREEN BAY      LGT RAIN  34  29  82 E8        29.72F WCI  27
MANITOWOC      LGT RAIN  34  32  92 E18       29.74F FOG     WCI  23
APPLETON       LGT RAIN  32  27  80 E12G20    29.68F WCI  23
CLINTONVILLE   MIX PCPN  31  28  85 E12G21    29.69F WCI  22
OSHKOSH        LGT RAIN  33  31  92 E16       29.66F FOG     WCI  23
$$

WIZ032>034-041-042-053>061-250300-
SOUTHWEST WISCONSIN

CITY           SKY/WX    TMP DP  RH WIND       PRES   REMARKS
LA CROSSE      LGT SNOW  34  32  92 SE6       29.54F FOG     WCI  29
SPARTA         CLOUDY    32  32  99 E13       29.57F FOG     WCI  23
VIROQUA        CLOUDY    32  32 100 SE12      29.53F WCI  23
BOSCOBEL       LGT RAIN  38  35  89 E7        29.55F FOG     WCI  33
PRAIRIE DU CHI RAIN      35  34  95 SE6       29.55F WCI  30
PLATTEVILLE    FAIR      35  35 100 E17       29.53F WCI  25
$$

WIZ056-057-062-063-064-067-068-250300-
SOUTH CENTRAL WISCONSIN

CITY           SKY/WX    TMP DP  RH WIND       PRES   REMARKS
REEDSBURG      LGT RAIN  33  33 100 E8        29.56F WCI  26
BARABOO/DELLS  LGT RAIN  33  32  96 E16G24    29.59F WCI  23
LONE ROCK      LGT RAIN  35  35 100 E14       29.55F FOG     WCI  26
MINERAL POINT  LGT RAIN  36  36 100 E14G21    29.54F WCI  27
MADISON        RAIN      36  35  96 SE18G25   29.59F FOG     WCI  26
MIDDLETON      CLOUDY    36  36  99 E13       29.60F WCI  28
WATERTOWN      LGT SNOW  36  36 100 E20G28    29.63F WCI  25
MONROE         RAIN      36  36 100 E12G17    29.57F WCI  27
JANESVILLE     LGT RAIN  37  37 100 E17       29.60F WCI  28
$$

WIZ051-052-058>065-066-070>072-250300-
SOUTHEAST WISCONSIN

CITY           SKY/WX    TMP DP  RH WIND       PRES   REMARKS
MILWAUKEE      LGT RAIN  38  37  97 SE15      29.68F FOG     WCI  29
WAUKESHA       LGT RAIN  36  34  93 E14       29.68F WCI  27
MILWAUKEE/TIMM RAIN      36  34  93 E7        29.70F WCI  30
RACINE         LGT RAIN  38  37  97 SE13      29.68F FOG     WCI  30
BURLINGTON     MIX PCPN  37  36  93 SE12G20   29.66F WCI  30
KENOSHA        CLOUDY    38  36  92 SE13G25   29.65F FOG     WCI  30
FOND DU LAC    MIX PCPN  36  32  85 SE18      29.66F WCI  26
SHEBOYGAN      LGT RAIN  34  34 100 E16G22    29.72F FOG     WCI  24
WEST BEND      RAIN      34  34 100 E14G20    29.71F WCI  24
JUNEAU         RAIN      35  34  96 E18G29    29.65F WCI  24
$$

LSZ147-162-250300-
LAKE SUPERIOR

STATION/POSITION TIME  TEMP    WIND        PRES    WAVE
                       AIR SEA DIR/SP/G            HT/PER
                 (UTC) (F)     (DEG/KT/KT) (MB)    (FT/S)
DEVILS ISLAND    0100   25      60/ 25/ 29 1009.0F
SAXON HARBOR     0130   26      60/  7/  8 1005.4F
$$

LMZ867-665-643>646-250300-
LAKE MICHIGAN

STATION/POSITION TIME  TEMP    WIND        PRES    WAVE
                       AIR SEA DIR/SP/G            HT/PER
                 (UTC) (F)     (DEG/KT/KT) (MB)    (FT/S)
NORTHPORT PIER   0140   34                 1009.8F
KEWAUNEE LAKESHO 0130   36     110/ 14/ 19 1008.3F
SHEBOYGAN LAKESH 0100   36     100/ 23/ 27 1008.7F
PORT WASHINGTON  0140   36      90/ 10/ 13 1008.1F
KENOSHA   LAKESH 0100   37     130/ 11/ 13 1006.8
$$

TC  - TEMPERATURE IN CELSIUS
VSB - VISIBILITY IN STATUTE MILES
WCI - WIND CHILL INDEX
HX  - HEAT INDEX





USA.gov is the U.S. government's official web portal to all federal, state and local government web resources and services.